,,�O�C���x [��],����1,���ԉ��x [��],����2,���Ԏ��x [��],����3,�Q�����x [��],����4,���� [��],����5
2004/6/1,0:00,15.5,0,23.7,0,55.7,0,21.8,0,23.8,0
2004/6/1,0:15,15.2,0,23.6,0,55.6,0,21.8,0,23.8,0
2004/6/1,0:30,15.2,0,23.6,0,55.5,0,21.7,0,23.7,0
2004/6/1,0:45,15.3,0,23.5,0,55.4,0,21.7,0,23.7,0
2004/6/1,1:00,15.1,0,23.5,0,55.2,0,21.6,0,23.7,0
2004/6/1,1:15,15,0,23.4,0,55.2,0,21.5,0,23.6,0
2004/6/1,1:30,14.8,0,23.4,0,55,0,21.5,0,23.6,0
2004/6/1,1:45,14.7,0,23.3,0,55.1,0,21.4,0,23.6,0
2004/6/1,2:00,14.8,0,23.2,0,54.9,0,21.3,0,23.5,0
2004/6/1,2:15,14.6,0,23.2,0,55,0,21.3,0,23.5,0
2004/6/1,2:30,14.6,0,23.1,0,55,0,21.2,0,23.5,0
2004/6/1,2:45,14.6,0,23.1,0,55.1,0,21.1,0,23.4,0
2004/6/1,3:00,14,0,23.1,0,55.2,0,21,0,23.4,0
2004/6/1,3:15,14.4,0,23,0,55.2,0,20.9,0,23.3,0
2004/6/1,3:30,14.3,0,23,0,55.6,0,20.9,0,23.3,0
2004/6/1,3:45,14,0,22.9,0,56.2,0,20.8,0,23.2,0
2004/6/1,4:00,13.8,0,22.9,0,56.1,0,20.7,0,23.2,0
2004/6/1,4:15,13.9,0,22.9,0,56,0,20.6,0,23.1,0
2004/6/1,4:30,13.8,0,22.8,0,56,0,20.5,0,23.1,0
2004/6/1,4:45,13.6,0,22.8,0,56.9,0,20.5,0,23,0
2004/6/1,5:00,13.6,0,22.8,0,56.6,0,20.5,0,22.9,0
2004/6/1,5:15,13.5,0,22.8,0,57,0,20.4,0,22.8,0
2004/6/1,5:30,13.5,0,22.8,0,56.7,0,20.3,0,22.7,0
2004/6/1,5:45,13.7,0,22.7,0,56,0,20.2,0,22.5,0
2004/6/1,6:00,13.7,0,22.6,0,53.1,0,20.2,0,22,0
2004/6/1,6:15,13.6,0,22.4,0,52.2,0,20.2,0,21.6,0
2004/6/1,6:30,13.9,0,22.3,0,52.6,0,20.2,0,21.3,0
2004/6/1,6:45,13.8,0,22.2,0,52,0,20.4,0,21.2,0
2004/6/1,7:00,14.2,0,22.1,0,52.6,0,20.6,0,21.2,0
2004/6/1,7:15,14.4,0,22,0,53.1,0,20.7,0,21.1,0
2004/6/1,7:30,14.9,0,22,0,54.3,0,20.7,0,21,0
2004/6/1,7:45,14.8,0,22,0,53.1,0,20.8,0,21.1,0
2004/6/1,8:00,14.9,0,21.9,0,52.2,0,20.9,0,21.2,0
2004/6/1,8:15,14.9,0,21.4,0,49,0,21.1,0,21.4,0
2004/6/1,8:30,15.3,0,21.4,0,49.8,0,21.2,0,21.5,0
2004/6/1,8:45,15.3,0,20.8,0,49.6,0,21.3,0,21.4,0
2004/6/1,9:00,15.5,0,21,0,49.1,0,21.4,0,21.5,0
2004/6/1,9:15,15.9,0,21.4,0,49.6,0,21.5,0,21.6,0
2004/6/1,9:30,16.1,0,21.6,0,50.9,0,21.6,0,21.7,0
2004/6/1,9:45,16.7,0,21.8,0,51.6,0,21.7,0,21.8,0
2004/6/1,10:00,16.9,0,22,0,51.8,0,21.8,0,21.8,0
2004/6/1,10:15,17.4,0,22.1,0,52.1,0,21.8,0,21.9,0
2004/6/1,10:30,18.5,0,22.2,0,52.3,0,21.9,0,22,0
2004/6/1,10:45,18.6,0,22.3,0,52.5,0,22,0,22.1,0
2004/6/1,11:00,19.3,0,22.5,0,52.6,0,22,0,22.2,0
2004/6/1,11:15,20.2,0,22.5,0,52.7,0,22.1,0,22.3,0
2004/6/1,11:30,20.3,0,22.6,0,52.8,0,22.2,0,22.4,0
2004/6/1,11:45,20.6,0,22.7,0,53,0,22.3,0,22.4,0
2004/6/1,12:00,21.9,0,22.7,0,53.1,0,22.3,0,22.5,0
2004/6/1,12:15,22.4,0,22.8,0,53,0,22.4,0,22.5,0
2004/6/1,12:30,22.6,0,22.8,0,52.9,0,22.5,0,22.6,0
2004/6/1,12:45,22.3,0,22.8,0,48,0,22.6,0,22.6,0
2004/6/1,13:00,23.1,0,22.9,0,45.1,0,22.6,0,22.7,0
2004/6/1,13:15,22.9,0,22.8,0,38.7,0,22.7,0,22.7,0
2004/6/1,13:30,22.6,0,22.9,0,39.5,0,22.8,0,22.8,0
2004/6/1,13:45,23.2,0,22.9,0,42.4,0,22.9,0,22.9,0
2004/6/1,14:00,23.7,0,23,0,45,0,23,0,22.9,0
2004/6/1,14:15,24.4,0,23.1,0,46.2,0,23.1,0,23,0
2004/6/1,14:30,24.5,0,23.2,0,47.1,0,23.2,0,23.1,0
2004/6/1,14:45,23,0,23.3,0,47.7,0,23.3,0,23.2,0
2004/6/1,15:00,22.4,0,23.3,0,48.7,0,23.4,0,23.2,0
2004/6/1,15:15,22.2,0,23.3,0,49.2,0,23.4,0,23.3,0
2004/6/1,15:30,22.2,0,23.4,0,49.7,0,23.5,0,23.3,0
2004/6/1,15:45,22.1,0,23.5,0,50,0,23.6,0,23.4,0
2004/6/1,16:00,21.5,0,23.6,0,50.2,0,23.7,0,23.5,0
2004/6/1,16:15,21.5,0,23.7,0,50.4,0,23.8,0,23.5,0
2004/6/1,16:30,22,0,23.8,0,50.8,0,23.9,0,23.6,0
2004/6/1,16:45,22.7,0,23.8,0,51.1,0,23.9,0,23.6,0
2004/6/1,17:00,22.2,0,23.8,0,50.8,0,24,0,23.7,0
2004/6/1,17:15,22.6,0,23.8,0,50.6,0,24,0,23.7,0
2004/6/1,17:30,21,0,23.9,0,51.2,0,23.9,0,23.7,0
2004/6/1,17:45,21,0,23.9,0,51.1,0,23.9,0,23.7,0
2004/6/1,18:00,20.6,0,24,0,51.2,0,23.9,0,23.7,0
2004/6/1,18:15,20.2,0,24,0,51,0,23.9,0,23.7,0
2004/6/1,18:30,20.1,0,24.1,0,51,0,23.9,0,23.8,0
2004/6/1,18:45,19.7,0,24.1,0,50.9,0,23.9,0,23.7,0
2004/6/1,19:00,18.7,0,24,0,49.9,0,23.8,0,23.6,0
2004/6/1,19:15,18.6,0,24,0,49.2,0,23.7,0,23.5,0
2004/6/1,19:30,18.1,0,23.9,0,48.1,0,23.7,0,23.6,0
2004/6/1,19:45,17.7,0,23.9,0,49.1,0,23.6,0,23.6,0
2004/6/1,20:00,16.6,0,23.9,0,49.7,0,23.5,0,23.2,0
2004/6/1,20:15,17,0,23.9,0,50.1,0,23.3,0,22.9,0
2004/6/1,20:30,15.8,0,23.9,0,50.4,0,23.2,0,22.8,0
2004/6/1,20:45,15.4,0,23.9,0,51,0,23,0,22.6,0
2004/6/1,21:00,15.4,0,23.9,0,50.7,0,22.9,0,22.6,0
2004/6/1,21:15,15.3,0,23.9,0,52.1,0,22.7,0,22.5,0
2004/6/1,21:30,14.9,0,23.9,0,51.8,0,22.6,0,22.3,0
2004/6/1,21:45,14.8,0,23.9,0,53.1,0,22.5,0,22.4,0
2004/6/1,22:00,14.4,0,23.9,0,52.8,0,22.3,0,22.5,0
2004/6/1,22:15,14.7,0,23.9,0,52.5,0,22.2,0,22.6,0
2004/6/1,22:30,14.5,0,23.8,0,52.3,0,22.1,0,22.6,0
2004/6/1,22:45,13.9,0,23.8,0,52.3,0,21.9,0,22.6,0
2004/6/1,23:00,14.1,0,23.8,0,52.1,0,21.8,0,22.6,0
2004/6/1,23:15,14.2,0,23.7,0,52.1,0,21.7,0,22.6,0
2004/6/1,23:30,13.8,0,23.7,0,51.9,0,21.5,0,22.6,0
2004/6/1,23:45,13.5,0,23.6,0,51.8,0,21.4,0,22.6,0
2004/6/2,0:00,13.4,0,23.6,0,51.7,0,21.2,0,22.6,0
2004/6/2,0:15,13.2,0,23.5,0,51.7,0,21.1,0,22.6,0
2004/6/2,0:30,13.8,0,23.4,0,51.6,0,20.9,0,22.5,0
2004/6/2,0:45,13.6,0,23.4,0,51.5,0,20.8,0,22.5,0
2004/6/2,1:00,13,0,23.3,0,51.4,0,20.6,0,22.5,0
2004/6/2,1:15,13.2,0,23.3,0,51.3,0,20.5,0,22.4,0
2004/6/2,1:30,13.2,0,23.2,0,51.1,0,20.3,0,22.4,0
2004/6/2,1:45,13.5,0,23.1,0,51.1,0,20.2,0,22.3,0
2004/6/2,2:00,12.6,0,23.1,0,51.1,0,20.1,0,22.2,0
2004/6/2,2:15,12.1,0,23,0,51,0,19.9,0,22.2,0
2004/6/2,2:30,11.9,0,23,0,50.9,0,19.8,0,22.1,0
2004/6/2,2:45,11.3,0,22.9,0,50.7,0,19.7,0,22,0
2004/6/2,3:00,11.3,0,22.8,0,50.8,0,19.6,0,21.9,0
2004/6/2,3:15,11.2,0,22.8,0,50.6,0,19.5,0,21.8,0
2004/6/2,3:30,10.9,0,22.7,0,50.7,0,19.4,0,21.7,0
2004/6/2,3:45,10.7,0,22.6,0,50.6,0,19.3,0,21.7,0
2004/6/2,4:00,10.4,0,22.5,0,50.6,0,19.2,0,21.6,0
2004/6/2,4:15,10.3,0,22.4,0,50.4,0,19.1,0,21.5,0
2004/6/2,4:30,10.5,0,22.3,0,50.7,0,19,0,21.4,0
2004/6/2,4:45,10.6,0,22.3,0,50.8,0,18.9,0,21.2,0
2004/6/2,5:00,10.9,0,22.2,0,51,0,18.8,0,21.1,0
2004/6/2,5:15,10.8,0,22.2,0,51.2,0,18.6,0,20.9,0
2004/6/2,5:30,10.5,0,22.1,0,48.9,0,18.5,0,20.7,0
2004/6/2,5:45,10.8,0,21.8,0,47.2,0,18.4,0,20.6,0
2004/6/2,6:00,11.4,0,21.7,0,49.3,0,18.4,0,20.1,0
2004/6/2,6:15,11.9,0,21.7,0,50.4,0,18.4,0,19.4,0
2004/6/2,6:30,11.6,0,21.7,0,50.9,0,18.4,0,19.3,0
2004/6/2,6:45,12.1,0,21.9,0,50.6,0,18.8,0,19.3,0
2004/6/2,7:00,12.8,0,22,0,51.1,0,19.4,0,19.6,0
2004/6/2,7:15,13.2,0,22.1,0,50.9,0,19.9,0,19.7,0
2004/6/2,7:30,13.9,0,22.2,0,50.1,0,20.4,0,19.8,0
2004/6/2,7:45,14.2,0,22.4,0,50.5,0,21,0,19.9,0
2004/6/2,8:00,14.6,0,22,0,45.7,0,21.4,0,20.1,0
2004/6/2,8:15,14.7,0,22,0,45.2,0,21.8,0,20.3,0
2004/6/2,8:30,15,0,21.8,0,44.7,0,22.1,0,20.5,0
2004/6/2,8:45,15.5,0,21.7,0,45.7,0,22.3,0,20.6,0
2004/6/2,9:00,16,0,22.1,0,46.4,0,22.5,0,20.8,0
2004/6/2,9:15,17,0,22.2,0,46.4,0,22.7,0,21,0
2004/6/2,9:30,16.7,0,22.3,0,46,0,22.8,0,21.1,0
2004/6/2,9:45,17.5,0,22.3,0,46,0,22.9,0,21.2,0
2004/6/2,10:00,17.8,0,22.5,0,45.5,0,23,0,21.3,0
2004/6/2,10:15,18.6,0,22.6,0,43.1,0,23,0,21.4,0
2004/6/2,10:30,19,0,22.7,0,44.8,0,23.1,0,21.5,0
2004/6/2,10:45,19.5,0,22.8,0,46.3,0,23.1,0,21.6,0
2004/6/2,11:00,20.3,0,22.9,0,46.9,0,23.2,0,21.7,0
2004/6/2,11:15,20.7,0,22.9,0,47.1,0,23.3,0,21.8,0
2004/6/2,11:30,21.4,0,23,0,47.5,0,23.5,0,21.9,0
2004/6/2,11:45,21.6,0,23,0,48,0,23.6,0,22,0
2004/6/2,12:00,21.7,0,23.1,0,48.2,0,23.6,0,22.1,0
2004/6/2,12:15,21.4,0,23.1,0,48.5,0,23.7,0,22.2,0
2004/6/2,12:30,21.1,0,23.2,0,48.8,0,23.8,0,22.2,0
2004/6/2,12:45,20.4,0,23.2,0,48.9,0,23.8,0,22.3,0
2004/6/2,13:00,20,0,23.2,0,49,0,23.8,0,22.4,0
2004/6/2,13:15,21.8,0,23.2,0,49,0,23.9,0,22.4,0
2004/6/2,13:30,23.3,0,23.3,0,49.2,0,24,0,22.5,0
2004/6/2,13:45,22,0,23.3,0,49.2,0,24.1,0,22.6,0
2004/6/2,14:00,22.5,0,23.3,0,49.2,0,24.2,0,22.7,0
2004/6/2,14:15,21.5,0,23.4,0,49.4,0,24.2,0,22.7,0
2004/6/2,14:30,22.7,0,23.4,0,49.7,0,24.2,0,22.8,0
2004/6/2,14:45,22.2,0,23.5,0,50,0,24.3,0,22.9,0
2004/6/2,15:00,22.6,0,23.5,0,49.9,0,24.3,0,22.9,0
2004/6/2,15:15,22.1,0,23.6,0,50.2,0,24.3,0,23,0
2004/6/2,15:30,22.6,0,23.7,0,50.1,0,24.3,0,23.1,0
2004/6/2,15:45,22.3,0,23.7,0,50.3,0,24.4,0,23.1,0
2004/6/2,16:00,22.1,0,23.8,0,50.5,0,24.4,0,23.2,0
2004/6/2,16:15,22.2,0,23.8,0,50.4,0,24.4,0,23.2,0
2004/6/2,16:30,22.2,0,23.9,0,49.5,0,24.4,0,23.3,0
2004/6/2,16:45,21.8,0,23.9,0,45.1,0,24.4,0,23.3,0
2004/6/2,17:00,23.6,0,23.8,0,41.3,0,24.4,0,23.3,0
2004/6/2,17:15,23.1,0,23.9,0,40.1,0,24.4,0,23.4,0
2004/6/2,17:30,21.1,0,23.9,0,39.4,0,24.3,0,23.4,0
2004/6/2,17:45,20.6,0,23.8,0,40,0,24.3,0,23.4,0
2004/6/2,18:00,20.6,0,23.7,0,41.3,0,24.3,0,23.4,0
2004/6/2,18:15,19.9,0,23.5,0,41.1,0,24.3,0,23.4,0
2004/6/2,18:30,19.6,0,23.5,0,40.4,0,24.2,0,23.5,0
2004/6/2,18:45,19.2,0,23.5,0,42.5,0,24.2,0,23.5,0
2004/6/2,19:00,19.2,0,23.6,0,43.4,0,24.1,0,23.3,0
2004/6/2,19:15,18.9,0,23.6,0,45.2,0,24,0,23.1,0
2004/6/2,19:30,18.7,0,23.7,0,45.8,0,23.8,0,23,0
2004/6/2,19:45,18.3,0,23.7,0,46,0,23.7,0,22.9,0
2004/6/2,20:00,18.2,0,23.7,0,46.3,0,23.6,0,22.8,0
2004/6/2,20:15,17.4,0,23.7,0,46.5,0,23.5,0,22.6,0
2004/6/2,20:30,17.3,0,23.7,0,46.5,0,23.3,0,22.4,0
2004/6/2,20:45,17.2,0,23.7,0,46.5,0,23.2,0,22.2,0
2004/6/2,21:00,16.7,0,23.7,0,46.7,0,23.1,0,22,0
2004/6/2,21:15,16.5,0,23.7,0,47.5,0,23,0,21.8,0
2004/6/2,21:30,15.5,0,23.7,0,47.8,0,22.8,0,21.9,0
2004/6/2,21:45,15.6,0,23.6,0,47.8,0,22.7,0,22,0
2004/6/2,22:00,14.7,0,23.6,0,47.8,0,22.5,0,22.1,0
2004/6/2,22:15,14.9,0,23.5,0,47.8,0,22.4,0,22.2,0
2004/6/2,22:30,14.3,0,23.5,0,47.9,0,22.2,0,22.2,0
2004/6/2,22:45,13.9,0,23.4,0,47.9,0,22.1,0,22.2,0
2004/6/2,23:00,13.8,0,23.3,0,47.8,0,21.9,0,22.2,0
2004/6/2,23:15,13.5,0,23.3,0,47.8,0,21.8,0,22.2,0
2004/6/2,23:30,13.4,0,23.2,0,47.7,0,21.6,0,22.1,0
2004/6/2,23:45,13.4,0,23.1,0,47.7,0,21.5,0,22.1,0
2004/6/3,0:00,13.4,0,23.1,0,47.8,0,21.3,0,22.1,0
2004/6/3,0:15,13.4,0,23,0,47.7,0,21.2,0,22,0
2004/6/3,0:30,12.8,0,22.9,0,47.7,0,21,0,22,0
2004/6/3,0:45,12.8,0,22.8,0,47.8,0,20.9,0,21.9,0
2004/6/3,1:00,12.6,0,22.8,0,47.7,0,20.7,0,21.8,0
2004/6/3,1:15,12.3,0,22.7,0,47.7,0,20.5,0,21.8,0
2004/6/3,1:30,12,0,22.6,0,47.8,0,20.4,0,21.7,0
2004/6/3,1:45,11.4,0,22.5,0,47.7,0,20.2,0,21.6,0
2004/6/3,2:00,11.8,0,22.4,0,47.8,0,20.1,0,21.5,0
2004/6/3,2:15,12,0,22.4,0,47.8,0,19.9,0,21.5,0
2004/6/3,2:30,11.4,0,22.3,0,47.8,0,19.8,0,21.4,0
2004/6/3,2:45,11.4,0,22.2,0,47.9,0,19.7,0,21.3,0
2004/6/3,3:00,10.7,0,22.1,0,48,0,19.6,0,21.2,0
2004/6/3,3:15,11,0,22,0,48.1,0,19.5,0,21.1,0
2004/6/3,3:30,10.8,0,22,0,48.3,0,19.3,0,21,0
2004/6/3,3:45,10.2,0,21.9,0,49.2,0,19.2,0,20.9,0
2004/6/3,4:00,9.9,0,21.9,0,49.1,0,19.1,0,20.8,0
2004/6/3,4:15,9.5,0,21.8,0,48.8,0,19,0,20.8,0
2004/6/3,4:30,9.9,0,21.7,0,48.7,0,18.9,0,20.6,0
2004/6/3,4:45,9.8,0,21.7,0,49.9,0,18.8,0,20.5,0
2004/6/3,5:00,9.6,0,21.7,0,51.3,0,18.7,0,20.4,0
2004/6/3,5:15,9.6,0,21.7,0,50.5,0,18.6,0,20.2,0
2004/6/3,5:30,9.7,0,21.6,0,50.4,0,18.4,0,19.9,0
2004/6/3,5:45,10,0,21.5,0,49.3,0,18.4,0,19.5,0
2004/6/3,6:00,10.2,0,21.5,0,48.7,0,18.3,0,19.1,0
2004/6/3,6:15,10.8,0,21.4,0,50,0,18.3,0,19,0
2004/6/3,6:30,10.9,0,21.4,0,49.9,0,18.2,0,19.1,0
2004/6/3,6:45,11.3,0,21.6,0,49.4,0,18.8,0,19.2,0
2004/6/3,7:00,11.9,0,21.7,0,49.6,0,19.5,0,19.3,0
2004/6/3,7:15,12.2,0,20.9,0,44.8,0,19.9,0,19.4,0
2004/6/3,7:30,12.8,0,21.4,0,47,0,20.4,0,19.6,0
2004/6/3,7:45,13.4,0,21.8,0,44.9,0,20.9,0,19.7,0
2004/6/3,8:00,13.9,0,21.7,0,44.5,0,21.3,0,19.9,0
2004/6/3,8:15,14.5,0,21.7,0,43,0,21.7,0,20.2,0
2004/6/3,8:30,14.9,0,21.8,0,41,0,22,0,20.4,0
2004/6/3,8:45,15.4,0,22,0,44.8,0,22.2,0,20.5,0
2004/6/3,9:00,16.4,0,22.2,0,44.8,0,22.4,0,20.7,0
2004/6/3,9:15,17.1,0,22.3,0,44.5,0,22.6,0,20.8,0
2004/6/3,9:30,17,0,22.5,0,44.9,0,22.7,0,21,0
2004/6/3,9:45,18,0,22.6,0,45.5,0,22.8,0,21.1,0
2004/6/3,10:00,18.6,0,22.7,0,46,0,22.9,0,21.2,0
2004/6/3,10:15,19.7,0,22.8,0,46.1,0,23,0,21.4,0
2004/6/3,10:30,20,0,22.8,0,46.1,0,23,0,21.5,0
2004/6/3,10:45,20.6,0,22.9,0,46.1,0,23.1,0,21.6,0
2004/6/3,11:00,21.2,0,22.9,0,46.1,0,23.2,0,21.7,0
2004/6/3,11:15,21.9,0,23,0,46.3,0,23.2,0,21.9,0
2004/6/3,11:30,22.4,0,23,0,46.3,0,23.3,0,21.9,0
2004/6/3,11:45,22.9,0,23,0,46.1,0,23.4,0,22,0
2004/6/3,12:00,23.6,0,23.1,0,46.2,0,23.4,0,22.1,0
2004/6/3,12:15,23.5,0,23.1,0,45.9,0,23.5,0,22.2,0
2004/6/3,12:30,23.3,0,23.1,0,46.2,0,23.5,0,22.2,0
2004/6/3,12:45,24.1,0,23.1,0,46.1,0,23.6,0,22.3,0
2004/6/3,13:00,23.8,0,23.2,0,46.3,0,23.7,0,22.4,0
2004/6/3,13:15,24.8,0,23.3,0,46.3,0,23.7,0,22.5,0
2004/6/3,13:30,24.8,0,23.3,0,46.3,0,23.8,0,22.5,0
2004/6/3,13:45,24.3,0,23.3,0,46.7,0,23.8,0,22.6,0
2004/6/3,14:00,25.4,0,23.4,0,46.8,0,23.9,0,22.7,0
2004/6/3,14:15,25.8,0,23.5,0,38.1,0,23.9,0,22.8,0
2004/6/3,14:30,26.1,0,23.6,0,36.5,0,24,0,22.9,0
2004/6/3,14:45,26.2,0,23.9,0,36.5,0,24,0,23,0
2004/6/3,15:00,25.9,0,24,0,34.7,0,24.1,0,23.1,0
2004/6/3,15:15,25.9,0,24.1,0,35.3,0,24.1,0,23.2,0
2004/6/3,15:30,25.8,0,24.2,0,35,0,24.2,0,23.2,0
2004/6/3,15:45,25.4,0,24.3,0,35.1,0,24.2,0,23.3,0
2004/6/3,16:00,25.5,0,24.3,0,34.7,0,24.2,0,23.4,0
2004/6/3,16:15,25.6,0,24.3,0,34.7,0,24.3,0,23.4,0
2004/6/3,16:30,25.6,0,24.4,0,32,0,24.3,0,23.5,0
2004/6/3,16:45,25.9,0,24.4,0,31.2,0,24.3,0,23.5,0
2004/6/3,17:00,28.6,0,24.4,0,30.9,0,24.4,0,23.6,0
2004/6/3,17:15,28.5,0,24.5,0,33,0,24.4,0,23.6,0
2004/6/3,17:30,25.5,0,24.5,0,33.9,0,24.4,0,23.7,0
2004/6/3,17:45,24.8,0,24.4,0,35,0,24.5,0,23.7,0
2004/6/3,18:00,24.5,0,24.5,0,36.1,0,24.5,0,23.8,0
2004/6/3,18:15,24.3,0,24.5,0,37.2,0,24.5,0,23.8,0
2004/6/3,18:30,24.1,0,24.5,0,39.2,0,24.5,0,23.9,0
2004/6/3,18:45,23.7,0,24.5,0,40.8,0,24.5,0,23.9,0
2004/6/3,19:00,23,0,24.5,0,41.8,0,24.5,0,23.9,0
2004/6/3,19:15,22.5,0,24.5,0,43.1,0,24.4,0,23.9,0
2004/6/3,19:30,22.3,0,24.5,0,44.2,0,24.3,0,23.9,0
2004/6/3,19:45,21.7,0,24.5,0,44.6,0,24.2,0,23.9,0
2004/6/3,20:00,20.7,0,24.5,0,44.6,0,24.1,0,23.9,0
2004/6/3,20:15,20.2,0,24.5,0,44.7,0,24.1,0,23.9,0
2004/6/3,20:30,19.8,0,24.5,0,44.5,0,24,0,23.8,0
2004/6/3,20:45,19.6,0,24.5,0,44.5,0,23.9,0,23.7,0
2004/6/3,21:00,19.4,0,24.5,0,45.2,0,23.8,0,23.7,0
2004/6/3,21:15,19.2,0,24.5,0,46.1,0,23.7,0,23.6,0
2004/6/3,21:30,18.8,0,24.5,0,45.2,0,23.5,0,23.5,0
2004/6/3,21:45,18.7,0,24.4,0,45.5,0,23.4,0,23.4,0
2004/6/3,22:00,18.7,0,24.4,0,45.5,0,23.3,0,23.4,0
2004/6/3,22:15,18.2,0,24.4,0,45.3,0,23.2,0,23.1,0
2004/6/3,22:30,17.9,0,24.4,0,45.6,0,23.1,0,23.1,0
2004/6/3,22:45,17.4,0,24.4,0,46.1,0,23,0,23.2,0
2004/6/3,23:00,17.2,0,24.3,0,46.3,0,22.9,0,23.2,0
2004/6/3,23:15,16.8,0,24.3,0,46.3,0,22.8,0,23.2,0
2004/6/3,23:30,16.7,0,24.3,0,46.3,0,22.6,0,23.3,0
2004/6/3,23:45,16.2,0,24.2,0,46.4,0,22.5,0,23.3,0
2004/6/4,0:00,16.5,0,24.2,0,46.3,0,22.4,0,23.3,0
2004/6/4,0:15,16.4,0,24.1,0,46.2,0,22.3,0,23.2,0
2004/6/4,0:30,15.7,0,24,0,46.1,0,22.1,0,23.2,0
2004/6/4,0:45,15.6,0,24,0,46.2,0,22,0,23.2,0
2004/6/4,1:00,15.4,0,23.9,0,46.6,0,21.9,0,23.1,0
2004/6/4,1:15,15.2,0,23.8,0,46.6,0,21.7,0,23.1,0
2004/6/4,1:30,14.8,0,23.8,0,46.4,0,21.6,0,23,0
2004/6/4,1:45,14.5,0,23.7,0,46.3,0,21.4,0,23,0
2004/6/4,2:00,14.5,0,23.6,0,46.2,0,21.3,0,22.9,0
2004/6/4,2:15,14.7,0,23.5,0,46.1,0,21.1,0,22.9,0
2004/6/4,2:30,13.7,0,23.4,0,46,0,21,0,22.8,0
2004/6/4,2:45,13.6,0,23.4,0,45.9,0,20.9,0,22.7,0
2004/6/4,3:00,12.8,0,23.3,0,45.8,0,20.7,0,22.7,0
2004/6/4,3:15,12.9,0,23.2,0,45.7,0,20.6,0,22.6,0
2004/6/4,3:30,12.7,0,23.1,0,45.7,0,20.5,0,22.5,0
2004/6/4,3:45,12.4,0,23,0,45.6,0,20.3,0,22.4,0
2004/6/4,4:00,12.7,0,22.9,0,45.6,0,20.2,0,22.3,0
2004/6/4,4:15,12.5,0,22.9,0,45.6,0,20,0,22.2,0
2004/6/4,4:30,12.6,0,22.8,0,45.6,0,19.9,0,22.1,0
2004/6/4,4:45,12,0,22.7,0,45.5,0,19.8,0,22,0
2004/6/4,5:00,11.5,0,22.7,0,46.2,0,19.7,0,21.9,0
2004/6/4,5:15,11.9,0,22.6,0,47.1,0,19.6,0,21.7,0
2004/6/4,5:30,12.2,0,22.6,0,47.2,0,19.5,0,21.6,0
2004/6/4,5:45,12.2,0,22.5,0,47.4,0,19.5,0,21.4,0
2004/6/4,6:00,12.5,0,22.4,0,47.4,0,19.4,0,21.3,0
2004/6/4,6:15,13.2,0,22.4,0,47.4,0,19.4,0,21.2,0
2004/6/4,6:30,13.5,0,22.3,0,46,0,19.4,0,20.8,0
2004/6/4,6:45,13.8,0,22.4,0,46.9,0,19.7,0,20.7,0
2004/6/4,7:00,13.9,0,22.5,0,47.3,0,20.2,0,21,0
2004/6/4,7:15,14.2,0,22.6,0,48,0,20.7,0,21.1,0
2004/6/4,7:30,14.1,0,22.7,0,46.8,0,21.2,0,21.2,0
2004/6/4,7:45,14.9,0,22.2,0,45.5,0,21.6,0,21.4,0
2004/6/4,8:00,15.7,0,22.4,0,43.9,0,22,0,21.5,0
2004/6/4,8:15,16.3,0,22.2,0,43,0,22.3,0,21.7,0
2004/6/4,8:30,16.4,0,22.1,0,43.2,0,22.6,0,21.8,0
2004/6/4,8:45,17.9,0,22.2,0,43.3,0,22.9,0,21.9,0
2004/6/4,9:00,18.2,0,22.5,0,43.8,0,23.1,0,22,0
2004/6/4,9:15,18.9,0,22.7,0,44,0,23.3,0,22.1,0
2004/6/4,9:30,19.3,0,22.9,0,44.2,0,23.4,0,22.2,0
2004/6/4,9:45,19.9,0,23,0,44.3,0,23.6,0,22.3,0
2004/6/4,10:00,20.4,0,23.1,0,44.4,0,23.7,0,22.4,0
2004/6/4,10:15,21.3,0,23.2,0,44.4,0,23.8,0,22.5,0
2004/6/4,10:30,21.9,0,23.3,0,45.1,0,23.8,0,22.7,0
2004/6/4,10:45,22.3,0,23.4,0,44.6,0,23.9,0,22.8,0
2004/6/4,11:00,22.8,0,23.5,0,43.2,0,24,0,22.9,0
2004/6/4,11:15,23.3,0,23.6,0,42.4,0,24.1,0,23,0
2004/6/4,11:30,23.8,0,23.7,0,41.7,0,24.2,0,23.1,0
2004/6/4,11:45,24.3,0,23.8,0,41.9,0,24.3,0,23.2,0
2004/6/4,12:00,24.9,0,23.8,0,41.8,0,24.4,0,23.3,0
2004/6/4,12:15,24.8,0,23.9,0,41.7,0,24.4,0,23.4,0
2004/6/4,12:30,25.3,0,23.9,0,41.8,0,24.5,0,23.5,0
2004/6/4,12:45,25.9,0,24,0,41,0,24.6,0,23.5,0
2004/6/4,13:00,26,0,24.3,0,39.6,0,24.7,0,23.6,0
2004/6/4,13:15,26.5,0,24.3,0,39.9,0,24.8,0,23.7,0
2004/6/4,13:30,26.8,0,24.4,0,40.5,0,24.9,0,23.8,0
2004/6/4,13:45,26.9,0,24.5,0,40.2,0,24.9,0,23.8,0
2004/6/4,14:00,27.2,0,24.5,0,40.9,0,25,0,23.9,0
2004/6/4,14:15,27,0,24.5,0,41.7,0,25.1,0,24,0
2004/6/4,14:30,27.3,0,24.5,0,42.4,0,25.2,0,24.1,0
2004/6/4,14:45,27.7,0,24.6,0,42.7,0,25.3,0,24.2,0
2004/6/4,15:00,27.3,0,24.6,0,43,0,25.4,0,24.3,0
2004/6/4,15:15,27.2,0,24.7,0,43.2,0,25.5,0,24.4,0
2004/6/4,15:30,27.4,0,24.7,0,43.4,0,25.6,0,24.4,0
2004/6/4,15:45,27.4,0,24.8,0,43.6,0,25.7,0,24.5,0
2004/6/4,16:00,27.7,0,24.8,0,43.8,0,25.8,0,24.6,0
2004/6/4,16:15,27.7,0,24.9,0,44,0,25.8,0,24.7,0
2004/6/4,16:30,27.7,0,24.9,0,44.2,0,25.9,0,24.8,0
2004/6/4,16:45,27.5,0,24.9,0,44.4,0,26,0,24.8,0
2004/6/4,17:00,28.6,0,25.2,0,38,0,26.1,0,24.9,0
2004/6/4,17:15,28.6,0,25.4,0,36.6,0,26.1,0,25,0
2004/6/4,17:30,27,0,25.5,0,36.3,0,26.2,0,25.1,0
2004/6/4,17:45,26.2,0,25.6,0,36.7,0,26.3,0,25.2,0
2004/6/4,18:00,25.7,0,25.6,0,35.6,0,26.3,0,25.2,0
2004/6/4,18:15,25.5,0,25.5,0,34.4,0,26.3,0,25.3,0
2004/6/4,18:30,25.2,0,25.5,0,34.6,0,26.3,0,25.3,0
2004/6/4,18:45,24.8,0,25.4,0,36.2,0,26.3,0,25.3,0
2004/6/4,19:00,24.2,0,25.4,0,38.3,0,26.3,0,25.3,0
2004/6/4,19:15,23.7,0,25.4,0,39.7,0,26.2,0,25.3,0
2004/6/4,19:30,23.4,0,25.3,0,40.3,0,26.2,0,25.3,0
2004/6/4,19:45,23.1,0,25.4,0,41.2,0,26.1,0,25.3,0
2004/6/4,20:00,23,0,25.4,0,42.2,0,26,0,25.2,0
2004/6/4,20:15,22.5,0,25.4,0,43.2,0,25.9,0,24.9,0
2004/6/4,20:30,22.2,0,25.4,0,43.2,0,25.8,0,24.8,0
2004/6/4,20:45,21.9,0,25.4,0,43.1,0,25.7,0,24.7,0
2004/6/4,21:00,21.8,0,25.5,0,45.2,0,25.6,0,24.5,0
2004/6/4,21:15,21.3,0,25.5,0,44.5,0,25.4,0,24.3,0
2004/6/4,21:30,20.6,0,25.4,0,44.3,0,25.3,0,24.4,0
2004/6/4,21:45,20.3,0,25.4,0,44.2,0,25.2,0,24.5,0
2004/6/4,22:00,20.2,0,25.3,0,44.6,0,25,0,24.6,0
2004/6/4,22:15,19.9,0,25.3,0,44.8,0,24.9,0,24.6,0
2004/6/4,22:30,19.5,0,25.3,0,44.8,0,24.8,0,24.6,0
2004/6/4,22:45,19.1,0,25.2,0,44.9,0,24.7,0,24.6,0
2004/6/4,23:00,18.9,0,25.2,0,44.8,0,24.5,0,24.7,0
2004/6/4,23:15,18.9,0,25.2,0,44.9,0,24.4,0,24.6,0
2004/6/4,23:30,19.1,0,25.1,0,45,0,24.3,0,24.6,0
2004/6/4,23:45,18.7,0,25.1,0,45.1,0,24.2,0,24.6,0
2004/6/5,0:00,18.3,0,25,0,45.1,0,24.1,0,24.6,0
2004/6/5,0:15,18.1,0,25,0,45.2,0,23.9,0,24.6,0
2004/6/5,0:30,18.2,0,24.9,0,45.2,0,23.8,0,24.5,0
2004/6/5,0:45,17.9,0,24.9,0,45.3,0,23.7,0,24.5,0
2004/6/5,1:00,17.2,0,24.8,0,45.3,0,23.6,0,24.5,0
2004/6/5,1:15,17.6,0,24.8,0,45.1,0,23.5,0,24.4,0
2004/6/5,1:30,17.3,0,24.7,0,45.1,0,23.4,0,24.4,0
2004/6/5,1:45,17.2,0,24.6,0,45.1,0,23.3,0,24.3,0
2004/6/5,2:00,17.2,0,24.6,0,45.1,0,23.2,0,24.3,0
2004/6/5,2:15,16.6,0,24.5,0,45.2,0,23,0,24.2,0
2004/6/5,2:30,16.8,0,24.4,0,45.1,0,22.9,0,24.1,0
2004/6/5,2:45,16.5,0,24.3,0,45.1,0,22.8,0,24.1,0
2004/6/5,3:00,15.9,0,24.3,0,45.2,0,22.7,0,24,0
2004/6/5,3:15,16.3,0,24.2,0,45.3,0,22.5,0,24,0
2004/6/5,3:30,15.4,0,24.1,0,45.4,0,22.4,0,23.9,0
2004/6/5,3:45,16,0,24.1,0,46.1,0,22.3,0,23.8,0
2004/6/5,4:00,16.2,0,24,0,46.3,0,22.2,0,23.8,0
2004/6/5,4:15,15.8,0,23.9,0,46.3,0,22.1,0,23.7,0
2004/6/5,4:30,15.8,0,23.8,0,46.1,0,22,0,23.6,0
2004/6/5,4:45,15.3,0,23.8,0,46.3,0,21.9,0,23.5,0
2004/6/5,5:00,14.9,0,23.7,0,46.4,0,21.8,0,23.5,0
2004/6/5,5:15,15.1,0,23.7,0,46.2,0,21.7,0,23.4,0
2004/6/5,5:30,14.8,0,23.5,0,46.6,0,21.7,0,23.3,0
2004/6/5,5:45,15.3,0,23.2,0,46.8,0,21.7,0,23.2,0
2004/6/5,6:00,15.1,0,22.9,0,47.9,0,21.7,0,23.2,0
2004/6/5,6:15,15.7,0,22.6,0,49.2,0,21.7,0,23.1,0
2004/6/5,6:30,16.1,0,22.5,0,49.3,0,21.8,0,23.1,0
2004/6/5,6:45,16.3,0,22.5,0,49.8,0,22,0,23.1,0
2004/6/5,7:00,16.2,0,22.7,0,49.8,0,22.2,0,23,0
2004/6/5,7:15,16.6,0,22.8,0,49.2,0,22.4,0,23,0
2004/6/5,7:30,16.6,0,22.9,0,49.4,0,22.7,0,23.1,0
2004/6/5,7:45,17.2,0,22.9,0,49.4,0,22.8,0,23,0
2004/6/5,8:00,17.4,0,23,0,49.3,0,22.9,0,23,0
2004/6/5,8:15,18,0,23.1,0,49.5,0,23.1,0,23,0
2004/6/5,8:30,18.7,0,23.2,0,49.1,0,23.3,0,23.2,0
2004/6/5,8:45,18.9,0,23.3,0,49.9,0,23.5,0,23.3,0
2004/6/5,9:00,19.6,0,23.4,0,50,0,23.7,0,23.4,0
2004/6/5,9:15,20.1,0,23.5,0,49.5,0,23.9,0,23.5,0
2004/6/5,9:30,20.5,0,23.5,0,49.2,0,24.2,0,23.6,0
2004/6/5,9:45,20.7,0,23.6,0,49,0,24.3,0,23.7,0
2004/6/5,10:00,20.9,0,23.6,0,48.8,0,24.5,0,23.7,0
2004/6/5,10:15,21.7,0,23.7,0,48.7,0,24.7,0,23.8,0
2004/6/5,10:30,21.3,0,23.7,0,48.7,0,24.9,0,23.9,0
2004/6/5,10:45,22,0,23.7,0,48.6,0,25,0,23.9,0
2004/6/5,11:00,21.6,0,23.8,0,48.6,0,25.1,0,23.9,0
2004/6/5,11:15,22.5,0,23.8,0,48.6,0,25.3,0,24,0
2004/6/5,11:30,22.7,0,23.9,0,48.6,0,25.4,0,24.1,0
2004/6/5,11:45,23.4,0,23.9,0,48.9,0,25.6,0,24.2,0
2004/6/5,12:00,24.2,0,24,0,49.1,0,25.7,0,24.3,0
2004/6/5,12:15,24.8,0,24.2,0,50.1,0,25.8,0,24.4,0
2004/6/5,12:30,24.9,0,24.5,0,48.5,0,26,0,24.5,0
2004/6/5,12:45,24.9,0,24.7,0,47.5,0,26.1,0,24.6,0
2004/6/5,13:00,25.3,0,24.8,0,47.8,0,26.3,0,24.7,0
2004/6/5,13:15,25.7,0,24.9,0,46.6,0,26.4,0,24.8,0
2004/6/5,13:30,25.4,0,24.9,0,46.7,0,26.5,0,24.9,0
2004/6/5,13:45,25.4,0,24.9,0,47.1,0,26.6,0,24.9,0
2004/6/5,14:00,26.1,0,25,0,47.1,0,26.7,0,25,0
2004/6/5,14:15,26.3,0,25,0,47.3,0,26.9,0,25.2,0
2004/6/5,14:30,26.1,0,25.1,0,47.2,0,26.9,0,25.3,0
2004/6/5,14:45,26.9,0,25.1,0,47.3,0,27,0,25.3,0
2004/6/5,15:00,27.1,0,25.2,0,46.7,0,27.1,0,25.4,0
2004/6/5,15:15,26.7,0,25.2,0,46.5,0,27.2,0,25.5,0
2004/6/5,15:30,27.1,0,25.3,0,46.3,0,27.3,0,25.5,0
2004/6/5,15:45,26.6,0,25.3,0,45.3,0,27.4,0,25.6,0
2004/6/5,16:00,26.6,0,25.3,0,45.9,0,27.5,0,25.6,0
2004/6/5,16:15,26.5,0,25.4,0,45.5,0,27.5,0,25.7,0
2004/6/5,16:30,26.5,0,25.4,0,44.9,0,27.5,0,25.7,0
2004/6/5,16:45,25.8,0,25.5,0,44.6,0,27.5,0,25.8,0
2004/6/5,17:00,25.4,0,25.5,0,45.1,0,27.5,0,25.8,0
2004/6/5,17:15,25.2,0,25.4,0,35.2,0,27.5,0,25.8,0
2004/6/5,17:30,25,0,25.3,0,34.1,0,27.5,0,25.8,0
2004/6/5,17:45,24.7,0,25.4,0,33.4,0,27.4,0,25.8,0
2004/6/5,18:00,24.4,0,25.3,0,33.5,0,27.3,0,25.8,0
2004/6/5,18:15,24.1,0,25.2,0,33.6,0,27.3,0,25.8,0
2004/6/5,18:30,23.9,0,25.1,0,35.6,0,27.2,0,25.8,0
2004/6/5,18:45,23.8,0,25.1,0,37.2,0,27.1,0,25.8,0
2004/6/5,19:00,23.7,0,25.2,0,39,0,27,0,25.8,0
2004/6/5,19:15,23.4,0,25.3,0,42.1,0,26.8,0,25.6,0
2004/6/5,19:30,23.5,0,25.3,0,42.8,0,26.7,0,25.5,0
2004/6/5,19:45,23.1,0,25.4,0,43.7,0,26.5,0,25.3,0
2004/6/5,20:00,23,0,25.4,0,43.9,0,26.4,0,25.3,0
2004/6/5,20:15,22.9,0,25.4,0,44.2,0,26.2,0,25.3,0
2004/6/5,20:30,22.5,0,25.4,0,44.1,0,26.1,0,25.4,0
2004/6/5,20:45,22.5,0,25.4,0,44,0,26,0,25.5,0
2004/6/5,21:00,22.2,0,25.4,0,44.7,0,25.8,0,25.5,0
2004/6/5,21:15,22.1,0,25.4,0,45.8,0,25.7,0,25.5,0
2004/6/5,21:30,21.4,0,25.4,0,46.1,0,25.6,0,25.5,0
2004/6/5,21:45,21.5,0,25.4,0,45.8,0,25.4,0,25.5,0
2004/6/5,22:00,21.3,0,25.4,0,45.7,0,25.3,0,25.5,0
2004/6/5,22:15,21,0,25.3,0,46,0,25.1,0,25.5,0
2004/6/5,22:30,21,0,25.3,0,45.6,0,25.1,0,25.5,0
2004/6/5,22:45,20.6,0,25.2,0,45.6,0,24.9,0,25.5,0
2004/6/5,23:00,19.9,0,25.2,0,45.4,0,24.8,0,25.4,0
2004/6/5,23:15,19.5,0,25.1,0,45.4,0,24.7,0,25.4,0
2004/6/5,23:30,19.7,0,25,0,45.4,0,24.6,0,25.4,0
2004/6/5,23:45,19.5,0,25,0,45.4,0,24.4,0,25.3,0